User: anonymous   Login
Location: Theydon Bois
(51.6750°N, 0.1050°E)
Time: 05:24:35
(UTC+00:00)
Language:

SL-27 R/B - Orbit

View from above orbital plane
View from above orbital plane
View from above satellite
View from above satellite

Ground track
Ground track

The orbit data is extracted from the following two-line orbital elements,

1 40354U 14084B   18023.47385509  .00001038  00000-0  27698-4 0  9996
2 40354  74.7380  38.4417 0040556 308.3114  51.4453 15.38788614173738
Epoch (UTC): 23 January 2018 11:22:21
Eccentricity: 0.0040556
inclination: 74.7380°
perigee height: 422 km
apogee height: 477 km
right ascension of ascending node: 38.4417°
argument of perigee: 308.3114°
revolutions per day: 15.38788614
mean anomaly at epoch: 51.4453°
orbit number at epoch: 17373

The dashed part of the orbit path shows where the satellite is in the earth's shadow,  

DLR